Weather History for Limnos, Greece

Change the Weather History Date:

Sunday, November 18, 2012

  Actual Average Record
Temperature  
Mean Temperature 58 °F -  
Max Temperature 61 °F 56 °F 68 °F (2003)
Min Temperature 54 °F 45 °F 33 °F (2001)
Degree Days  
Heating Degree Days 8    
Growing Degree Days 8 (Base 50)    
Moisture  
Dew Point 50 °F    
Average Humidity 74    
Maximum Humidity 82    
Minimum Humidity 59    
Precipitation  
Precipitation 0.00 in 0.10 in - ()
Sea Level Pressure  
Sea Level Pressure 30.08 in    
Wind  
Wind Speed 16 mph ()    
Max Wind Speed 21 mph    
Max Gust Speed 30 mph    
Visibility 6.2 miles    
Events Rain    
Averages and records for this station are not official NWS values.
T = Trace of Precipitation, MM = Missing Value Source: Averaged Metar Reports

Daily Weather History Graph

Daily Weather History Graph

Search for Another Location

Airport:

Trip Planner

Search our weather history database for the weather conditions in past years. The results will help you decide how hot, cold, wet, or windy it might be!

Date:

Astronomy

Nov. 18, 2012 Rise Set
Actual Time 7:07 AM EET 5:00 PM EET
Civil Twilight 6:38 AM EET 5:29 PM EET
Nautical Twilight 6:05 AM EET 6:02 PM EET
Astronomical Twilight 5:33 AM EET 6:34 PM EET
Moon 11:21 AM EET (11/18) 9:58 PM EET (11/18)
Length of Visible Light 10h 51m
Length of Day
9h 52m
Waxing Crescent, 27% of the Moon is Illuminated
Nov 18
Waxing Crescent
Nov 20
First Quarter
Nov 28
Full
Dec 6
Last Quarter
Dec 13
New

Hourly Weather History & Observations

Time (EET) Temp. Dew Point Humidity Pressure Visibility Wind Dir Wind Speed Gust Speed Precip Events Conditions
12:20 AM 55.4 °F 48.2 °F 77% 30.09 in - NNE 19.6 mph - N/A   Unknown
12:50 AM 55.4 °F 50.0 °F 82% 30.09 in - NE 18.4 mph - N/A Rain Light Rain
1:20 AM 55.4 °F 50.0 °F 82% 30.09 in - NNE 18.4 mph - N/A   Unknown
1:50 AM 55.4 °F 50.0 °F 82% 30.09 in 6.2 mi NE 17.3 mph - N/A   Partly Cloudy
2:00 AM 56 °F 49 °F 71% 30.09 in 6 mi NE 17.3 mph - -   Scattered Clouds
2:20 AM 55.4 °F 50.0 °F 82% 30.09 in - NE 18.4 mph - N/A   Unknown
2:50 AM 55.4 °F 50.0 °F 82% 30.09 in - NE 18.4 mph - N/A Rain Light Rain
3:20 AM 55.4 °F 50.0 °F 82% 30.09 in - NE 17.3 mph - N/A   Unknown
3:50 AM 55.4 °F 50.0 °F 82% 30.06 in - NE 18.4 mph - N/A   Unknown
4:20 AM 55.4 °F 48.2 °F 77% 30.06 in - NE 18.4 mph - N/A   Unknown
4:50 AM 55.4 °F 48.2 °F 77% 30.06 in 6.2 mi NE 17.3 mph - N/A   Partly Cloudy
5:20 AM 55.4 °F 48.2 °F 77% 30.06 in 6.2 mi NE 17.3 mph - N/A   Partly Cloudy
5:50 AM 55.4 °F 48.2 °F 77% 30.06 in 6.2 mi NE 16.1 mph 27.6 mph N/A   Partly Cloudy
6:20 AM 55.4 °F 48.2 °F 77% 30.06 in 6.2 mi NE 16.1 mph - N/A   Partly Cloudy
6:50 AM 55.4 °F 48.2 °F 77% 30.06 in 6.2 mi NE 18.4 mph - N/A   Scattered Clouds
7:20 AM 55.4 °F 48.2 °F 77% 30.09 in 6.2 mi NE 16.1 mph - N/A   Scattered Clouds
7:50 AM 55.4 °F 48.2 °F 77% 30.09 in 6.2 mi NE 16.1 mph 27.6 mph N/A   Scattered Clouds
8:00 AM 56 °F 48 °F 67% 30.12 in 6 mi NE 16.1 mph - -   Mostly Cloudy
8:20 AM 57.2 °F 48.2 °F 72% 30.09 in 6.2 mi NE 18.4 mph - N/A   Scattered Clouds
8:50 AM 57.2 °F 48.2 °F 72% 30.12 in 6.2 mi NE 18.4 mph - N/A   Mostly Cloudy
9:20 AM 57.2 °F 50.0 °F 77% 30.09 in 6.2 mi NE 18.4 mph - N/A   Mostly Cloudy
9:50 AM 59.0 °F 50.0 °F 72% 30.09 in 6.2 mi NE 18.4 mph - N/A   Mostly Cloudy
10:20 AM 59.0 °F 50.0 °F 72% 30.09 in 6.2 mi NE 18.4 mph 29.9 mph N/A   Mostly Cloudy
10:50 AM 60.8 °F 50.0 °F 68% 30.09 in 6.2 mi NNE 19.6 mph - N/A   Scattered Clouds
11:20 AM 60.8 °F 50.0 °F 68% 30.09 in 6.2 mi NE 19.6 mph - N/A   Scattered Clouds
11:50 AM 60.8 °F 50.0 °F 68% 30.09 in 6.2 mi NNE 20.7 mph - N/A   Scattered Clouds
12:20 PM 60.8 °F 50.0 °F 68% 30.06 in 6.2 mi NNE 19.6 mph - N/A   Scattered Clouds
12:50 PM 60.8 °F 50.0 °F 68% 30.06 in 6.2 mi NE 18.4 mph - N/A   Scattered Clouds
1:20 PM 60.8 °F 50.0 °F 68% 30.06 in 6.2 mi NNE 17.3 mph - N/A   Scattered Clouds
1:50 PM 60.8 °F 50.0 °F 68% 30.06 in 6.2 mi NNE 18.4 mph - N/A   Scattered Clouds
2:00 PM 61 °F 50 °F 59% 30.07 in 6 mi NNE 18.4 mph - -   Scattered Clouds
2:20 PM 60.8 °F 50.0 °F 68% 30.06 in 6.2 mi NNE 18.4 mph - N/A   Scattered Clouds
2:50 PM 60.8 °F 50.0 °F 68% 30.06 in 6.2 mi NNE 16.1 mph - N/A   Scattered Clouds
3:20 PM 60.8 °F 50.0 °F 68% 30.04 in 6.2 mi NNE 17.3 mph - N/A   Scattered Clouds
3:50 PM 59.0 °F 50.0 °F 72% 30.06 in 6.2 mi NE 16.1 mph - N/A   Scattered Clouds
4:20 PM 59.0 °F 50.0 °F 72% 30.06 in 6.2 mi NNE 16.1 mph - N/A   Scattered Clouds
4:50 PM 59.0 °F 50.0 °F 72% 30.06 in 6.2 mi NNE 11.5 mph - N/A   Scattered Clouds
5:20 PM 59.0 °F 50.0 °F 72% 30.06 in 6.2 mi NNE 11.5 mph - N/A   Scattered Clouds
5:50 PM 57.2 °F 50.0 °F 77% 30.06 in 6.2 mi NE 11.5 mph - N/A   Scattered Clouds
6:20 PM 59.0 °F 50.0 °F 72% 30.06 in 6.2 mi NE 13.8 mph - N/A   Scattered Clouds
6:50 PM 59.0 °F 50.0 °F 72% 30.06 in 6.2 mi NNE 16.1 mph - N/A   Scattered Clouds
7:20 PM 59.0 °F 50.0 °F 72% 30.06 in 6.2 mi NNE 13.8 mph - N/A   Scattered Clouds
7:50 PM 57.2 °F 50.0 °F 77% 30.06 in 6.2 mi NE 12.7 mph - N/A   Scattered Clouds
8:00 PM 58 °F 50 °F 68% 30.09 in 6 mi NE 12.7 mph - -   Scattered Clouds
8:20 PM 57.2 °F 50.0 °F 77% 30.06 in - NNE 13.8 mph - N/A   Unknown
8:50 PM 57.2 °F 50.0 °F 77% 30.06 in - NE 12.7 mph - N/A   Unknown
9:20 PM 57.2 °F 50.0 °F 77% 30.06 in - NE 11.5 mph - N/A   Unknown
9:50 PM 57.2 °F 50.0 °F 77% 30.09 in - NE 11.5 mph - N/A   Unknown
10:20 PM 57.2 °F 50.0 °F 77% 30.09 in - ENE 11.5 mph - N/A   Unknown
10:50 PM 57.2 °F 50.0 °F 77% 30.09 in - NE 11.5 mph - N/A   Unknown
11:20 PM 57.2 °F 50.0 °F 77% 30.09 in - NE 11.5 mph - N/A   Unknown
11:50 PM 57.2 °F 50.0 °F 77% 30.09 in - NE 8.1 mph - N/A   Unknown